Regional Weather Roundup
Issued by NWS Sterling, VA

Home | Current Version | Previous Version | Graphics & Text | Print | Product List | Glossary On
Versions: 1 2 3 4 5 6 7 8 9 10 11 12 13 14 15 16 17 18 19 20 21 22 23 24 25 26 27
000
ASUS41 KLWX 261611
RWRLWX

REGIONAL WEATHER ROUNDUP
NATIONAL WEATHER SERVICE BALTIMORE MD/WASHINGTON DC
1200 PM EDT WED APR 26 2017

Note: "FAIR" indicates few or no clouds below 12,000 feet
with no significant weather and/or obstructions to visibility.
 TC=TEMPERATURE CELSIUS

 * =Non NWS site. Station does not report precipitation (e.g. rain,
    snow, etc.), thunder, or fog.

DCZ001-MDZ009-015-VAZ040>042-051-053>054-261700-
WASHINGTON METRO

CITY           SKY/WX    TMP DP  RH WIND       PRES   REMARKS
WASHINGTON NAT CLOUDY    66  58  75 N6        29.79F
DULLES         CLOUDY    63  55  75 NW7       29.80S
ANDREWS AFB    CLOUDY    62  56  83 N8        29.78F
FT BELVOIR     CLOUDY    64  56  76 N3        29.79F
QUANTICO       PTSUNNY   66  58  75 N5        29.80S
COLLEGE PARK*  CLOUDY    63  56  79 N5        29.78F
LEESBURG*      CLOUDY    63  61  94 N7        29.81S
MANASSAS*        N/A     66  58  75 N8        29.80S

$$

MDZ006>007-011-014-261700-
BALTIMORE METRO

CITY           SKY/WX    TMP DP  RH WIND       PRES   REMARKS
BWI AIRPORT    DRIZZLE   61  59  93 N5        29.79S
MD SCIENCE CTR   N/A     63  54  72 MISG      29.80S
MARTIN STATE   CLOUDY    61  61 100 NW6       29.81  FOG
ANNAPOLIS      CLOUDY    63  57  81 N5        29.79R
FORT MEADE*    CLOUDY    61  55  82 CALM      29.81F

$$

MDZ012-015-019>023-261700-
MARYLAND EASTERN SHORE

CITY           SKY/WX    TMP DP  RH WIND       PRES   REMARKS
OCEAN CITY     CLOUDY    60  57  89 N8        29.77R
SALISBURY      CLOUDY    62  60  93 NW8       29.77R
BAY BRIDGE AP* CLOUDY    59  57  94 N6        29.80R FOG
CAMBRIDGE*     CLOUDY    59  59 100 NW8       29.79R FOG
EASTON*        CLOUDY    59  57  94 NW7       29.82R FOG

$$

MDZ017>025-261700-
SOUTHERN MARYLAND

CITY           SKY/WX    TMP DP  RH WIND       PRES   REMARKS
PATUXENT RIVER CLOUDY    60  60 100 NW9       29.79S
ST INIGOES     CLOUDY    63  58  83 VRB6      29.78S
LEONARDTOWN*   CLOUDY    61  55  82 N3        29.80F

$$

MDZ003>005-261700-
NORTH CENTRAL MARYLAND

CITY           SKY/WX    TMP DP  RH WIND       PRES   REMARKS
FREDERICK*     CLOUDY    64  63  94 CALM      29.82S
HAGERSTOWN APT CLOUDY    64  57  78 NW5       29.80S
WESTMINSTER*   CLOUDY    61  57  88 N6        29.80F

$$

MDZ501>502-261700-
WESTERN MARYLAND

CITY           SKY/WX    TMP DP  RH WIND       PRES   REMARKS
OAKLAND*       FAIR      61  50  67 NW9       29.84S
CUMBERLAND*    FAIR      68  57  68 SW3       29.83F

$$

VAZ025>031-261700-
SHENANDOAH VALLEY

CITY           SKY/WX    TMP DP  RH WIND       PRES   REMARKS
WINCHESTER*    CLOUDY    63  55  77 N3        29.80F
FRONT ROYAL*   PTSUNNY   64  57  77 CALM      29.79F
LURAY*         FAIR      68  59  73 CALM      29.80S
NEW MARKET*    PTSUNNY   67  55  66 SE5       29.79F
STAUNTON*      FAIR      63  56  78 NE3       29.83F
WAYNESBORO*    FAIR      66  60  80 CALM      29.81F

$$

WVZ021-048>050-054>055-261700-
EASTERN WEST VIRGINIA PANHANDLE

CITY           SKY/WX    TMP DP  RH WIND       PRES   REMARKS
MARTINSBURG    CLOUDY    64  55  72 VRB3      29.79S
PETERSBURG*    FAIR      65  58  79 CALM      29.81F

$$

VAZ036>039-050-261700-
CENTRAL FOOTHILLS

CITY           SKY/WX    TMP DP  RH WIND       PRES   REMARKS
CHARLOTTESVILL FAIR      71  56  58 S5        29.78F
CULPEPER*      CLOUDY    68  59  72 CALM      29.80F
ORANGE*        PTSUNNY   68  59  73 CALM      29.79F
GORDONSVILLE*  PTSUNNY   69  58  68 CALM      29.78F
WARRENTON*     CLOUDY    69  55  61 CALM      29.79S

$$

VAZ055>057-261700-
NORTH AND CENTRAL PIEDMONT

CITY           SKY/WX    TMP DP  RH WIND       PRES   REMARKS
FREDERICKSBRG* PTSUNNY   68  58  71 CALM      29.78S
STAFFORD*      CLOUDY    66  60  80 NW6       29.83F

$$

NCZ024-NYZ072-PAZ021-071-VAZ022-071-261700-
OTHER REGIONAL OBSERVATIONS

CITY           SKY/WX    TMP DP  RH WIND       PRES   REMARKS
NEW YORK CITY  CLOUDY    57  55  93 VRB6G18   29.80R
PHILADELPHIA   CLOUDY    60  56  86 N8        29.78R
PITTSBURGH     FAIR      67  55  65 CALM      29.78F
ROANOKE        FAIR      70  59  68 SW3       29.83F
RICHMOND       CLOUDY    67  58  72 W6        29.80S
RALEIGH        PTSUNNY   73  62  68 SW7       29.84F

$$

ANZ530>537-261700-
MARINE OBSERVATIONS

STATION/POSITION TIME  TEMP    WIND        PRES
                       AIR SEA DIR/SP/G
                 (UTC) (F)     (DEG/KT/KT) (MB)
THOMAS PT LIGHT  1600   59 56  360/  4/  5   N/A
BALT KEY BRIDGE  1548   60     310/  4/  4 1008.8R
COVE POINT       1548   58     360/  6/  7 1009.3S
LEWISETTA        1548   62 61  360/  8/ 10 1008.5S
SOLOMONS ISLAND  1548   61 60  330/  8/ 11   N/A
PINEY POINT      1548          320/  6/  6   N/A

$$





USA.gov is the U.S. government's official web portal to all federal, state and local government web resources and services.